BION-M 02

基本信息
目录编号:
65265
目录名称:
BION-M 02
国际标识:
2025-181A
轨道中心:
EARTH
卫星名称:
BION-M 02
卫星全名:
BION-M 02
卫星状态:
已陨落 最后检测时间 2025-09-23
发射日期:
2025-08-20 UTC
国别 :
俄罗斯(独联体) (CIS)
星等 :
--
轨道信息
数据来源 国际轨道数据
星历时间: 2025-09-20T07:34:20+0800
轨道信息已过期86天
半长轴: 8380.658km
偏心率: 0.0533628
轨道倾角: 88.273°
近地点辐角 133.093°
升交点赤经 335.216°
平近点角 231.604°
近地点: 1555.307km
远地点: 2449.739km
周期: 127.256分钟
每日圈数: 11.31581
详细信息
使用方式:
暂无